{"data":{"norad_id":62108,"intl_designator":"2024-220W","name":"STARLINK-33553","alt_names":[],"object_type":"PAYLOAD","status":"ACTIVE","operator":null,"country":"US","launch_date":"2024-11-25","launch_site_code":"AFETR","launch_vehicle":null,"mission":null,"orbit_class":"UNKNOWN","rcs_meters":null,"size_class":null,"mass_kg":null,"dimensions":null,"purposes":["comms"],"wikipedia_slug":null,"has_3d_model":false,"image_url":null,"decayed_at":null,"tle_current":{"epoch":"2026-09-21T11:19:04.402272Z","epoch_age_seconds":98410,"freshness":"FRESH","line1":"1 62108U 24220W   26264.47157873  .00011804  00000+0  43776-3 0  9992","line2":"2 62108  42.9997 179.8549 0000761  27.4084 332.6808 15.27582637103135","mean_motion":15.27582637,"eccentricity":7.61e-5,"inclination_deg":42.9997,"raan_deg":179.8549,"arg_perigee_deg":27.4084,"mean_anomaly_deg":332.6808,"bstar":0.00043776,"rev_number":10313,"period_min":94.26658598503,"perigee_km":482.51906426334,"apogee_km":483.56333558537,"semimajor_km":6861.1781999244,"source":"CELESTRAK","updated_at":"2026-09-22T09:00:49.499836Z"}}}